Regional Weather Roundup
Issued by NWS

Home | Current Version | Previous Version | Graphics & Text | Print | Product List | Glossary Off
Versions: 1 2 3 4 5 6 7 8 9 10 11 12 13 14 15 16 17 18 19 20 21 22 23 24 25 26 27 28 29 30 31 32 33 34 35 36 37 38 39 40 41 42 43 44 45 46 47 48 49 50

000
ASUS43 KMPX 200501
RWRMN
WEATHER ROUNDUP FOR MINNESOTA
NATIONAL WEATHER SERVICE TWIN CITIES/CHANHASSEN MN
1200 AM CDT SAT SEP 20 2014


NOTE: "FAIR" INDICATES FEW OR NO CLOUDS BELOW 12,000 FEET WITH NO
SIGNIFICANT WEATHER AND/OR OBSTRUCTIONS TO VISIBILITY. N/A MEANS
CURRENT SKY AND/OR WEATHER CONDITIONS ARE NOT AVAILABLE.

MNZ060>063-068>070-200600-
   Twin Cities Metro

CITY           SKY/WX    TMP DP  RH WIND       PRES   REMARKS
TWIN CITIES    MOCLDY    73  67  81 SW9       29.67R
ST PAUL        CLEAR     66  64  93 E3        29.67R
CRYSTAL        PTCLDY    70  64  81 S8        29.66R
BLAINE         CLEAR     72  70  94 S9        29.66R
LAKEVILLE      MOCLDY    72  66  83 SW5       29.69S
EDEN PRAIRIE   PTCLDY    70  67  90 SW9       29.68R
SOUTH ST PAUL  CLEAR     74  66  77 SW9       29.67R
LAKE ELMO      FAIR      70  66  88 S8        29.68R
$$
MNZ001>005-007-008-013>017-022>024-027-028-200600-
   Northwest Minnesota

CITY           SKY/WX    TMP DP  RH WIND       PRES   REMARKS
BEMIDJI        PTCLDY    63  61  93 W10       29.60R
HALLOCK        DRIZZLE   57  55  94 NW10      29.68R
ROSEAU         MOCLDY    57  54  88 NW10      29.64R
WARROAD        MOCLDY    57  54  88 NW12      29.62R
THIEF RVR FALL CLOUDY    63  57  82 NW15      29.66R
CROOKSTON      CLOUDY    61  57  88 N15       29.68R
FOSSTON        MOCLDY    61  57  88 NW12G17   29.65R
DETROIT LAKES  PTCLDY    64  55  72 NW10G16   29.67R
MOORHEAD       MOCLDY    64  63  94 N14G20    29.68R
PARK RAPIDS    MOCLDY    64  61  90 W12       29.61S
MAHNOMEN       FAIR      62  59  91 NW10G16   29.64R
$$
MNZ006-009>011-018-025>026-200600-
   North Central Minnesota

CITY           SKY/WX    TMP DP  RH WIND       PRES   REMARKS
BAUDETTE       MOCLDY    58  57  97 NW8       29.58R
FLAG ISLAND    CLOUDY    57  55  94 NW16      29.59R
INTL FALLS     CLOUDY    58  57  97 S3        29.56S
WASKISH        MOCLDY    61  57  88 CALM      29.58S FOG
BIG FORK       MOCLDY    64  63  94 SW5       29.58F FOG
LONGVILLE      PTCLDY    63  63 100 SW3       29.59F FOG
GRAND RAPIDS   PTCLDY    64  61  88 S6        29.58F
CRANE LAKE     CLOUDY    59  59 100 CALM      29.62R
ORR            CLOUDY    61  59  94 W3        29.56S FOG
COOK           CLOUDY    63  61  94 SW5       29.58F FOG
WALKER         FAIR      66  62  87 W10       29.60R
$$
MNZ012-019>021-037-200600-
   Northeast Minnesota

CITY           SKY/WX    TMP DP  RH WIND       PRES   REMARKS
DULUTH         CLOUDY    65  62  90 W8        29.61F FOG
ELY            MOCLDY    59  57  94 CALM      29.59F
HIBBING        CLOUDY    64  61  90 VRB3      29.59F FOG
EVELETH        CLOUDY    63  61  94 SW5       29.60F FOG
DULUTH HARBOR  CLOUDY    63  61  94 S7        29.61F
TWO HARBORS    CLOUDY    61  55  82 CALM      29.60S HAZE
SILVER BAY     PTCLDY    61  61 100 CALM      29.59F FOG
GRAND MARAIS     N/A     53  52  96 CALM      29.59F
G MARAIS ARPRT CLOUDY    57  55  94 CALM      29.62F
$$
MNZ029>031-032-039>041-046>048-054>057-064-200600-
   West Central Minnesota

CITY           SKY/WX    TMP DP  RH WIND       PRES   REMARKS
FERGUS FALLS   MOCLDY    63  54  72 W9        29.66R
WHEATON        MOCLDY    64  55  72 W8        29.68F
ALEXANDRIA     PTCLDY    67  59  75 W13       29.66F
ELBOW LAKE     FAIR      65  58  77 NW8       29.65S
WADENA         PTCLDY    64  61  88 W8        29.62F
GLENWOOD       CLEAR     66  63  88 W9        29.66S
APPLETON       CLEAR     64  61  88 W7        29.66S
BENSON         CLEAR     63  61  94 NW8       29.65S
ORTONVILLE     PTCLDY    70  55  60 NW10      29.67S
MADISON        CLEAR    N/A N/A N/A W7        29.68R
WILLMAR        FAIR      66  63  88 SW5       29.68R
$$
MNZ033>034-036-042>043-049>051-058-059-200600-
   Central Minnesota

CITY           SKY/WX    TMP DP  RH WIND       PRES   REMARKS
ST CLOUD       FOG       59  57  93 CALM      29.63F VSB 1/4
SAUK CENTRE    FAIR      65  63  92 W9        29.64F
PAYNESVILLE    CLEAR     58  58 100 SW6       29.65S FOG
AITKIN         HAZE      55  52  88 CALM      29.58F VSB<1/4
PINE RIVER     PTCLDY    64  64 100 W5        29.64S
BRAINERD       FOG       59  59 100 SW3       29.60F VSB 1/2
STAPLES        PTCLDY    64  61  88 W8        29.61F
LONG PRAIRIE   FAIR      63  63 100 SW7       29.63F
LITTLE FALLS   FOG       57  55  94 CALM      29.61F VSB<1/4
LITCHFIELD     CLEAR     68  66  94 CALM      29.69R
BUFFALO        CLEAR     65  64  94 CALM      29.67R
MAPLE LAKE     CLEAR     66  65  96 S5        29.68R
$$
MNZ037-044-045-052-053-200600-
   East Central Minnesota

CITY           SKY/WX    TMP DP  RH WIND       PRES   REMARKS
MORA           FOG       54  52  94 CALM      29.63F VSB 1/4
CAMBRIDGE      CLEAR     64  57  77 S8        29.62S HAZE
RUSH CITY      PTCLDY    61  59  95 S3        29.63F
MOOSE LAKE     FOG       55  55 100 CALM      29.59F VSB 1/4
HINCKLEY       FOG       54  54 100 CALM      29.62F VSB 1/4
CLOQUET        FOG       63  61  94 S3        29.61F VSB 3/4
MCGREGOR       CLOUDY    59  55  88 CALM      29.60F VSB<1/4
$$
MNZ071>073-080-081-089-090-097-098-200600-
   Southwest Minnesota

CITY           SKY/WX    TMP DP  RH WIND       PRES   REMARKS
MONTEVIDEO     CLEAR     64  61  88 W3        29.68R
GRANITE FALLS  CLEAR     65  63  94 S7        29.71R
CANBY          CLEAR     68  62  81 W8        29.71R
MARSHALL       PTCLDY    70  63  78 SW7       29.71R
REDWOOD FALLS  PTCLDY    73  67  81 SW8       29.69R
OLIVIA         CLEAR     68  64  88 S6        29.70R
PIPESTONE      PTCLDY    72  57  60 NW7       29.76R
WINDOM         CLOUDY    72  64  78 S13       29.75R
WORTHINGTON    CLOUDY    72  64  78 SW6       29.76S
JACKSON        CLOUDY    68  63  83 SW10      29.76F
TRACY          PTCLDY    72  66  83 CALM      29.73R
SLAYTON        MOCLDY    68  58  68 CALM      29.75R
$$
MNZ065>067-074>077-082>085-091>093-200600-
   South Central Minnesota

CITY           SKY/WX    TMP DP  RH WIND       PRES   REMARKS
MANKATO        MOCLDY    70  61  73 S9        29.72R
NEW ULM        MOCLDY    70  68  94 S7        29.71R
ST JAMES       CLOUDY    72  66  83 S10       29.73S
FAIRMONT       CLOUDY    66  57  72 SW9       29.76S
GLENCOE        PTCLDY    69  64  84 CALM      29.69R
FARIBAULT      MOCLDY    73  64  73 S9G20     29.74R
OWATONNA       CLOUDY    70  64  83 S13       29.76R
WASECA         CLOUDY    63  57  82 S12G21    29.76R
ALBERT LEA     TSTM      64  63  94 CALM      29.81R
$$
MNZ078>079-086>088-094>096-200600-
   Southeast Minnesota

CITY           SKY/WX    TMP DP  RH WIND       PRES   REMARKS
ROCHESTER      TSTM      68  64  87 SW21G30   29.77R
RED WING       MOCLDY    72  64  78 S6        29.69S
STANTON        MOCLDY    72  66  81 S10G18    29.70R
DODGE CENTER   LGT RAIN  68  66  94 SW14G24   29.76R
WINONA         MOCLDY    70  61  73 SW10      29.75R
AUSTIN         TSTM      68  64  88 NW14      29.83R
PRESTON        MOCLDY    67  65  96 SW14G25   29.79R
$$
ABBREVIATIONS USED IN REMARKS
   TC - TEMPERATURES IN CELSIUS
  WCI - WIND CHILL INDEX
   HX - HEAT INDEX
  VSB - VISIBILITY
$$


USA.gov is the U.S. government's official web portal to all federal, state and local government web resources and services.